Hourly Data Report for October 19, 2015

All times are specified in Local Standard Time (LST). Add 1 hour to adjust for Daylight Saving Time where and when it is observed.

POND INLET A
NUNAVUT

72°41'22.000" N
77°58'08.000" W
61.60 m
2403206
71095
YIO

Download Data

Hourly Data (October 2015)
Hourly Data Report for October 19, 2015
Temp Definition
°C
Dew Point Temp Definition
°C
Rel Hum Definition
%
Wind Dir Definition
10's deg

Wind Spd Definition
km/h
Visibility Definition
km
Stn Press Definition
kPa
Hmdx Definition


Wind Chill Definition


Weather Definition


TIME
00:00 Legend Double Dagger -8.3 -11.5 78 15 11 16.1 100.28   -14 LegendNANA
01:00 Legend Double Dagger -8.5 -11.2 81 15 13 16.1 100.30   -14 LegendNANA
02:00 Legend Double Dagger -8.3 -10.9 82 20 4 16.1 100.32   -10 LegendNANA
03:00 Legend Double Dagger -9.9 -12.8 80 15 15 16.1 100.34   -17 LegendNANA
04:00 Legend Double Dagger -10.5 -13.1 81 12 5 16.1 100.36   -14 LegendNANA
05:00 Legend Double Dagger -9.2 -11.6 83 19 8 16.1 100.39   -14 LegendNANA
06:00 Legend Double Dagger -8.9 -11.7 81 17 11 16.1 100.41   -14 LegendNANA
07:00 Legend Double Dagger -6.5 -9.2 81   0 16.1 100.43     LegendNANA
08:00 Legend Double Dagger -9.9 -12.9 79 14 13 16.1 100.45   -16 LegendNANA
09:00 Legend Double Dagger -7.8 -12.2 71 17 9 16.1 100.47   -12 LegendNANA
10:00 Legend Double Dagger -5.7 -9.5 75 35 5 16.1 100.48   -8 LegendNANA
11:00 Legend Double Dagger -8.0 -12.2 72 16 15 16.1 100.49   -14 LegendNANA
12:00 Legend Double Dagger -8.1 -12.1 73 10 4 16.1 100.51   -10 LegendNANA
13:00 Legend Double Dagger -7.8 -11.5 75   0 16.1 100.53     LegendNANA
14:00 Legend Double Dagger -9.7 -12.7 79 14 11 16.1 100.55   -15 LegendNANA
15:00 Legend Double Dagger -9.8 -13.0 78 14 15 16.1 100.56   -16 LegendNANA
16:00 Legend Double Dagger -10.1 -13.4 77 15 17 16.1 100.58   -17 LegendNANA
17:00 Legend Double Dagger -10.6 -14.3 75 14 18 16.1 100.62   -18 LegendNANA
18:00 Legend Double Dagger -11.4 -14.9 75 14 21 16.1 100.62   -20 LegendNANA
19:00 Legend Double Dagger -12.5 -16.4 73 14 22 16.1 100.65   -21 LegendNANA
20:00 Legend Double Dagger -12.0 -16.4 70 14 22 16.1 100.64   -21 LegendNANA
21:00 Legend Double Dagger -10.1 -13.9 74 15 22 16.1 100.64   -18 LegendNANA
22:00 Legend Double Dagger -8.9 -13.3 71 15 26 16.1 100.63   -18 LegendNANA
23:00 Legend Double Dagger -8.6 -12.2 76 15 24 16.1 100.62   -17 LegendNANA

Notes on Data Quality.

Legend

  • E = Estimated
  • M = Missing
  • NA = Not Available
  • ‡ = Partner data that is not subject to review by the National Climate Archives
Date modified: